| time (UTC) | temp F | wind direction | speed knots | gust knots | rain 1hr in | rain 24hr in | rain mn in | humidity % | barometer mb |
| 20260906080404 | 68 | 52 | 4.3 | 7.8 | 0.01 | 0.15 | 0.02 | 89 | 1015.0 |
| 20260906075903 | 68 | 52 | 5.2 | 7.8 | 0.01 | 0.15 | 0.02 | 89 | 1015.0 |
| 20260906075404 | 68 | 36 | 5.2 | 7.8 | 0.01 | 0.15 | 0.02 | 89 | 1014.9 |
| 20260906074904 | 68 | 41 | 4.3 | 8.7 | 0.01 | 0.15 | 0.02 | 89 | 1014.8 |
| 20260906074404 | 68 | 49 | 5.2 | 8.7 | 0.01 | 0.15 | 0.02 | 89 | 1014.7 |
| 20260906073904 | 68 | 46 | 5.2 | 8.7 | 0.01 | 0.15 | 0.02 | 89 | 1014.7 |
| 20260906073403 | 68 | 43 | 4.3 | 7.8 | 0.01 | 0.15 | 0.02 | 89 | 1014.8 |
| 20260906072404 | 69 | 52 | 4.3 | 6.1 | 0.01 | 0.15 | 0.02 | 89 | 1014.7 |
| 20260906071904 | 69 | 57 | 3.5 | 10.4 | 0.01 | 0.15 | 0.02 | 90 | 1014.6 |
| 20260906070905 | 69 | 53 | 5.2 | 8.7 | 0.00 | 0.14 | 0.01 | 90 | 1014.6 |
| 20260906070401 | 69 | 44 | 4.3 | 7.8 | 0.00 | 0.14 | 0.01 | 90 | 1014.6 |
| 20260906065401 | 69 | 42 | 5.2 | 7.8 | 0.00 | 0.14 | 0.01 | 91 | 1014.8 |
| 20260906064901 | 69 | 42 | 4.3 | 5.2 | 0.00 | 0.14 | 0.01 | 92 | 1014.8 |
| 20260906064401 | 69 | 54 | 4.3 | 5.2 | 0.00 | 0.14 | 0.01 | 92 | 1014.8 |
| 20260906062901 | 69 | 50 | 3.5 | 5.2 | 0.00 | 0.14 | 0.01 | 93 | 1014.9 |
| 20260906061901 | 69 | 34 | 5.2 | 7.8 | 0.00 | 0.14 | 0.01 | 93 | 1014.8 |
| 20260906061401 | 69 | 40 | 4.3 | 7.8 | 0.00 | 0.14 | 0.01 | 93 | 1014.8 |
| 20260906060901 | 69 | 36 | 5.2 | 7.8 | 0.00 | 0.14 | 0.01 | 93 | 1014.7 |
| 20260906060401 | 69 | 24 | 4.3 | 8.7 | 0.00 | 0.14 | 0.01 | 93 | 1014.7 |
| 20260906055901 | 69 | 35 | 4.3 | 5.2 | 0.00 | 0.14 | 0.01 | 93 | 1014.6 |
| 20260906055401 | 69 | 27 | 4.3 | 7.8 | 0.00 | 0.14 | 0.01 | 93 | 1014.6 |
| 20260906054901 | 69 | 38 | 4.3 | 10.4 | 0.00 | 0.14 | 0.01 | 93 | 1014.6 |
| 20260906053901 | 69 | 47 | 5.2 | 7.8 | 0.01 | 0.14 | 0.01 | 93 | 1014.5 |
| 20260906053401 | 69 | 36 | 3.5 | 5.2 | 0.01 | 0.14 | 0.01 | 93 | 1014.4 |
| 20260906052401 | 69 | 81 | 3.5 | 6.1 | 0.01 | 0.14 | 0.01 | 93 | 1014.4 |
| 20260906051401 | 69 | 84 | 3.5 | 7.0 | 0.01 | 0.14 | 0.01 | 93 | 1014.3 |
| 20260906050901 | 69 | 80 | 2.6 | 6.1 | 0.01 | 0.14 | 0.01 | 93 | 1014.3 |
| 20260906050401 | 69 | 80 | 2.6 | 4.3 | 0.01 | 0.14 | 0.01 | 94 | 1014.3 |
| 20260906045901 | 69 | 63 | 2.6 | 5.2 | 0.01 | 0.14 | 0.01 | 94 | 1014.2 |
| 20260906045401 | 69 | 61 | 2.6 | 7.8 | 0.01 | 0.14 | 0.01 | 94 | 1014.1 |
| 20260906044901 | 69 | 50 | 4.3 | 8.7 | 0.01 | 0.14 | 0.01 | 94 | 1014.2 |
| 20260906044401 | 69 | 62 | 5.2 | 8.7 | 0.01 | 0.14 | 0.01 | 94 | 1014.1 |
| 20260906043901 | 70 | 55 | 5.2 | 8.7 | 0.01 | 0.13 | 0.00 | 94 | 1014.0 |
| 20260906043401 | 70 | 51 | 5.2 | 8.7 | 0.01 | 0.13 | 0.00 | 94 | 1014.0 |
| 20260906042901 | 70 | 54 | 5.2 | 7.8 | 0.01 | 0.13 | 0.00 | 94 | 1014.0 |
| 20260906042402 | 70 | 57 | 2.6 | 7.0 | 0.01 | 0.13 | 0.00 | 94 | 1014.0 |
| 20260906041901 | 70 | 51 | 4.3 | 6.1 | 0.01 | 0.13 | 0.00 | 94 | 1014.0 |
| 20260906041401 | 70 | 41 | 2.6 | 5.2 | 0.01 | 0.13 | 0.00 | 94 | 1014.1 |
| 20260906040901 | 70 | 36 | 2.6 | 4.3 | 0.01 | 0.13 | 0.00 | 94 | 1014.1 |
| 20260906040401 | 70 | 45 | 2.6 | 5.2 | 0.01 | 0.13 | 0.00 | 94 | 1014.1 |
| 20260906035901 | 70 | 60 | 2.6 | 6.1 | 0.01 | 0.13 | 0.13 | 94 | 1014.1 |
| 20260906034901 | 70 | 51 | 2.6 | 5.2 | 0.01 | 0.13 | 0.13 | 94 | 1014.1 |
| 20260906034401 | 70 | 27 | 4.3 | 5.2 | 0.01 | 0.13 | 0.13 | 94 | 1014.2 |
| 20260906033901 | 70 | 33 | 2.6 | 5.2 | 0.00 | 0.12 | 0.12 | 94 | 1014.2 |
| 20260906033402 | 70 | 49 | 4.3 | 8.7 | 0.00 | 0.12 | 0.12 | 94 | 1014.1 |
| 20260906032901 | 71 | 47 | 3.5 | 6.1 | 0.00 | 0.12 | 0.12 | 94 | 1014.1 |
| 20260906031901 | 71 | 49 | 4.3 | 10.4 | 0.00 | 0.12 | 0.12 | 94 | 1013.9 |
| 20260906031401 | 71 | 53 | 4.3 | 6.1 | 0.00 | 0.12 | 0.12 | 95 | 1014.0 |
| 20260906030901 | 71 | 52 | 2.6 | 7.0 | 0.01 | 0.12 | 0.12 | 95 | 1013.9 |
| 20260906030402 | 71 | 41 | 4.3 | 8.7 | 0.01 | 0.12 | 0.12 | 95 | 1013.9 |
| 20260906025402 | 72 | 46 | 3.5 | 10.4 | 0.01 | 0.12 | 0.12 | 95 | 1013.7 |
| 20260906024901 | 72 | 68 | 4.3 | 7.8 | 0.01 | 0.12 | 0.12 | 95 | 1013.7 |
| 20260906024402 | 72 | 65 | 4.3 | 7.8 | 0.01 | 0.12 | 0.12 | 95 | 1013.6 |
| 20260906023902 | 72 | 58 | 4.3 | 7.0 | 0.01 | 0.12 | 0.12 | 95 | 1013.5 |
| 20260906023402 | 72 | 76 | 4.3 | 8.7 | 0.01 | 0.12 | 0.12 | 95 | 1013.4 |
| 20260906022901 | 72 | 62 | 5.2 | 10.4 | 0.01 | 0.12 | 0.12 | 95 | 1013.4 |
| 20260906022402 | 73 | 40 | 7.0 | 10.4 | 0.01 | 0.12 | 0.12 | 95 | 1013.4 |
| 20260906021901 | 73 | 49 | 5.2 | 10.4 | 0.01 | 0.12 | 0.12 | 95 | 1013.4 |
| 20260906020401 | 73 | 60 | 7.8 | 11.3 | 0.01 | 0.11 | 0.11 | 95 | 1013.3 |
| 20260906014401 | 73 | 56 | 6.1 | 11.3 | 0.01 | 0.11 | 0.11 | 95 | 1012.9 |
| 20260906013402 | 73 | 50 | 9.6 | 13.9 | 0.02 | 0.11 | 0.11 | 95 | 1012.6 |
| 20260906012401 | 74 | 53 | 9.6 | 15.6 | 0.02 | 0.11 | 0.11 | 95 | 1012.7 |
| 20260906011902 | 74 | 48 | 7.0 | 12.2 | 0.02 | 0.11 | 0.11 | 95 | 1012.6 |
| 20260906011402 | 74 | 59 | 6.1 | 10.4 | 0.03 | 0.11 | 0.11 | 95 | 1012.5 |
| 20260906010901 | 74 | 45 | 7.8 | 13.0 | 0.02 | 0.10 | 0.10 | 95 | 1012.4 |
| 20260906005902 | 75 | 44 | 5.2 | 10.4 | 0.03 | 0.10 | 0.10 | 95 | 1012.3 |
| 20260906004901 | 75 | 67 | 4.3 | 7.8 | 0.04 | 0.10 | 0.10 | 95 | 1012.1 |
| 20260906004401 | 75 | 71 | 3.5 | 6.1 | 0.05 | 0.10 | 0.10 | 95 | 1012.1 |
| 20260906003902 | 75 | 70 | 3.5 | 7.0 | 0.05 | 0.10 | 0.10 | 95 | 1012.1 |
| 20260906003402 | 76 | 72 | 3.5 | 6.1 | 0.05 | 0.09 | 0.09 | 95 | 1012.1 |
| 20260906002902 | 76 | 53 | 2.6 | 6.1 | 0.06 | 0.09 | 0.09 | 95 | 1012.1 |
| 20260906002402 | 76 | 62 | 4.3 | 7.0 | 0.07 | 0.09 | 0.09 | 95 | 1011.9 |
| 20260906001902 | 76 | 50 | 3.5 | 8.7 | 0.08 | 0.09 | 0.09 | 95 | 1011.8 |
| 20260906000902 | 76 | 48 | 7.8 | 11.3 | 0.07 | 0.08 | 0.08 | 95 | 1011.6 |
| 20260906000403 | 76 | 50 | 6.1 | 10.4 | 0.07 | 0.08 | 0.08 | 95 | 1011.6 |
| 20260905235902 | 76 | 57 | 4.3 | 7.8 | 0.06 | 0.07 | 0.07 | 95 | 1011.6 |
| 20260905235402 | 76 | 65 | 3.5 | 8.7 | 0.05 | 0.06 | 0.06 | 95 | 1011.6 |
| 20260905234902 | 76 | 42 | 3.5 | 6.1 | 0.05 | 0.06 | 0.06 | 94 | 1011.6 |
| 20260905234402 | 76 | 59 | 2.6 | 5.2 | 0.04 | 0.05 | 0.05 | 93 | 1011.6 |
| 20260905233902 | 76 | 57 | 3.5 | 7.8 | 0.04 | 0.05 | 0.05 | 92 | 1011.7 |
| 20260905233402 | 77 | 61 | 2.6 | 6.1 | 0.03 | 0.04 | 0.04 | 90 | 1011.6 |
| 20260905232902 | 78 | 54 | 6.1 | 13.9 | 0.02 | 0.03 | 0.03 | 87 | 1011.7 |
| 20260905232402 | 80 | 22 | 8.7 | 15.6 | 0.01 | 0.02 | 0.02 | 84 | 1011.7 |
| 20260905231902 | 82 | 31 | 7.8 | 10.4 | 0.00 | 0.01 | 0.01 | 85 | 1011.3 |
| 20260905231402 | 82 | 61 | 2.6 | 5.2 | 0.00 | 0.01 | 0.01 | 84 | 1010.8 |
| 20260905230402 | 83 | 54 | 5.2 | 7.0 | 0.00 | 0.01 | 0.01 | 82 | 1010.8 |
| 20260905225902 | 84 | 62 | 2.6 | 5.2 | 0.00 | 0.01 | 0.01 | 83 | 1010.8 |
| 20260905225402 | 84 | 90 | 1.7 | 2.6 | 0.00 | 0.01 | 0.01 | 83 | 1010.8 |
| 20260905224902 | 84 | 63 | 1.7 | 2.6 | 0.00 | 0.01 | 0.01 | 83 | 1010.9 |
| 20260905224402 | 84 | 59 | 0.0 | 2.6 | 0.00 | 0.01 | 0.01 | 84 | 1010.9 |
| 20260905222902 | 84 | 57 | 2.6 | 5.2 | 0.00 | 0.01 | 0.01 | 83 | 1010.8 |
| 20260905222402 | 84 | 53 | 3.5 | 7.0 | 0.00 | 0.01 | 0.01 | 81 | 1010.9 |
| 20260905221902 | 85 | 82 | 2.6 | 8.7 | 0.00 | 0.01 | 0.01 | 81 | 1010.9 |
| 20260905221402 | 85 | 43 | 3.5 | 6.1 | 0.00 | 0.01 | 0.01 | 81 | 1010.8 |
| 20260905220402 | 84 | 24 | 3.5 | 7.0 | 0.00 | 0.01 | 0.01 | 80 | 1010.7 |
| 20260905215902 | 84 | 59 | 4.3 | 10.4 | 0.00 | 0.01 | 0.01 | 80 | 1010.6 |
| 20260905215402 | 84 | 32 | 5.2 | 8.7 | 0.00 | 0.01 | 0.01 | 80 | 1010.5 |
| 20260905214902 | 85 | 42 | 2.6 | 7.8 | 0.00 | 0.01 | 0.01 | 81 | 1010.5 |
| 20260905214402 | 84 | 19 | 3.5 | 7.8 | 0.00 | 0.01 | 0.01 | 82 | 1010.4 |
| 20260905213902 | 84 | 31 | 3.5 | 5.2 | 0.00 | 0.01 | 0.01 | 82 | 1010.5 |
| 20260905213402 | 84 | 34 | 5.2 | 10.4 | 0.00 | 0.01 | 0.01 | 81 | 1010.5 |
| 20260905212902 | 85 | 46 | 5.2 | 8.7 | 0.00 | 0.01 | 0.01 | 80 | 1010.5 |
| 20260905212402 | 85 | 56 | 4.3 | 10.4 | 0.00 | 0.01 | 0.01 | 81 | 1010.5 |
| 20260905211902 | 85 | 44 | 3.5 | 6.1 | 0.00 | 0.01 | 0.01 | 81 | 1010.5 |
| 20260905211402 | 85 | 28 | 2.6 | 7.0 | 0.00 | 0.01 | 0.01 | 80 | 1010.5 |
| 20260905210402 | 85 | 35 | 6.1 | 10.4 | 0.00 | 0.01 | 0.01 | 80 | 1010.4 |
| 20260905205902 | 86 | 21 | 5.2 | 8.7 | 0.00 | 0.01 | 0.01 | 79 | 1010.5 |
| 20260905205402 | 86 | 357 | 3.5 | 7.8 | 0.00 | 0.01 | 0.01 | 79 | 1010.6 |
| 20260905204402 | 86 | 9 | 4.3 | 7.0 | 0.00 | 0.01 | 0.01 | 78 | 1010.6 |
| 20260905203902 | 86 | 341 | 3.5 | 7.0 | 0.00 | 0.01 | 0.01 | 78 | 1010.6 |
| 20260905203402 | 86 | 14 | 3.5 | 7.0 | 0.00 | 0.01 | 0.01 | 79 | 1010.7 |
| 20260905202902 | 86 | 19 | 4.3 | 7.8 | 0.00 | 0.01 | 0.01 | 79 | 1010.7 |
| 20260905202403 | 86 | 348 | 4.3 | 8.7 | 0.00 | 0.01 | 0.01 | 78 | 1010.8 |
| 20260905201902 | 86 | 21 | 6.1 | 8.7 | 0.00 | 0.01 | 0.01 | 78 | 1010.8 |
| 20260905201402 | 87 | 26 | 4.3 | 8.7 | 0.00 | 0.01 | 0.01 | 78 | 1011.0 |
| 20260905200902 | 87 | 35 | 4.3 | 7.8 | 0.00 | 0.01 | 0.01 | 77 | 1011.0 |
| 20260905195902 | 87 | 3 | 4.3 | 7.0 | 0.00 | 0.01 | 0.01 | 77 | 1011.0 |
| 20260905195402 | 87 | 300 | 1.7 | 6.1 | 0.00 | 0.01 | 0.01 | 76 | 1011.1 |
| 20260905194902 | 87 | 344 | 2.6 | 6.1 | 0.00 | 0.01 | 0.01 | 77 | 1011.1 |
| 20260905194402 | 87 | 27 | 2.6 | 5.2 | 0.00 | 0.02 | 0.01 | 77 | 1011.1 |
| 20260905193902 | 87 | 0 | 1.7 | 4.3 | 0.00 | 0.02 | 0.01 | 79 | 1011.2 |
| 20260905192902 | 86 | 344 | 0.9 | 4.3 | 0.00 | 0.04 | 0.01 | 78 | 1011.2 |
| 20260905192403 | 86 | 13 | 1.7 | 6.1 | 0.00 | 0.05 | 0.01 | 79 | 1011.2 |
| 20260905191902 | 86 | 299 | 2.6 | 7.8 | 0.00 | 0.06 | 0.01 | 78 | 1011.4 |
| 20260905191403 | 86 | 354 | 1.7 | 4.3 | 0.00 | 0.07 | 0.01 | 77 | 1011.5 |
| 20260905190903 | 86 | 314 | 0.9 | 2.6 | 0.00 | 0.07 | 0.01 | 76 | 1011.6 |
| 20260905190402 | 87 | 294 | 5.2 | 10.4 | 0.00 | 0.08 | 0.01 | 75 | 1011.6 |
| 20260905185902 | 87 | 301 | 3.5 | 8.7 | 0.00 | 0.09 | 0.01 | 76 | 1011.5 |
| 20260905185402 | 87 | 279 | 4.3 | 7.0 | 0.00 | 0.10 | 0.01 | 77 | 1011.6 |
| 20260905184902 | 87 | 299 | 2.6 | 6.1 | 0.00 | 0.12 | 0.01 | 76 | 1011.7 |
| 20260905183903 | 86 | 260 | 3.5 | 6.1 | 0.00 | 0.15 | 0.01 | 78 | 1011.6 |
| 20260905182403 | 86 | 267 | 4.3 | 7.0 | 0.01 | 0.15 | 0.01 | 77 | 1011.8 |
| 20260905181902 | 85 | 258 | 4.3 | 8.7 | 0.01 | 0.15 | 0.01 | 78 | 1011.8 |
| 20260905181402 | 85 | 270 | 2.6 | 7.0 | 0.01 | 0.15 | 0.01 | 78 | 1011.8 |
| 20260905180903 | 85 | 277 | 2.6 | 6.1 | 0.01 | 0.15 | 0.01 | 81 | 1011.8 |
| 20260905180403 | 85 | 249 | 2.6 | 5.2 | 0.01 | 0.15 | 0.01 | 82 | 1011.9 |
| 20260905175903 | 84 | 209 | 2.6 | 6.1 | 0.01 | 0.15 | 0.01 | 83 | 1011.9 |
| 20260905175402 | 84 | 203 | 2.6 | 5.2 | 0.01 | 0.15 | 0.01 | 84 | 1012.0 |
| 20260905174402 | 82 | 238 | 0.9 | 4.3 | 0.01 | 0.15 | 0.01 | 85 | 1012.1 |
| 20260905173403 | 81 | 229 | 0.0 | 0.9 | 0.01 | 0.15 | 0.01 | 86 | 1012.2 |
| 20260905172903 | 80 | 229 | 0.0 | 0.0 | 0.01 | 0.15 | 0.01 | 83 | 1012.3 |
| 20260905172403 | 80 | 229 | 0.0 | 0.0 | 0.00 | 0.14 | 0.00 | 86 | 1012.5 |
| 20260905171903 | 80 | 229 | 0.0 | 1.7 | 0.00 | 0.14 | 0.00 | 83 | 1012.7 |
| 20260905170903 | 81 | 229 | 1.7 | 2.6 | 0.00 | 0.14 | 0.00 | 80 | 1012.8 |
| 20260905170403 | 82 | 259 | 1.7 | 4.3 | 0.00 | 0.14 | 0.00 | 80 | 1012.8 |
| 20260905165902 | 82 | 234 | 0.9 | 4.3 | 0.00 | 0.14 | 0.00 | 81 | 1012.7 |
| 20260905165403 | 82 | 213 | 2.6 | 7.0 | 0.00 | 0.14 | 0.00 | 85 | 1012.7 |
| 20260905164903 | 82 | 200 | 4.3 | 7.8 | 0.00 | 0.14 | 0.00 | 84 | 1012.6 |
| 20260905164402 | 82 | 203 | 2.6 | 7.0 | 0.00 | 0.14 | 0.00 | 85 | 1012.7 |
| 20260905163902 | 81 | 177 | 2.6 | 7.0 | 0.00 | 0.14 | 0.00 | 85 | 1012.8 |
| 20260905162903 | 80 | 205 | 3.5 | 7.8 | 0.00 | 0.14 | 0.00 | 86 | 1012.9 |
| 20260905162402 | 79 | 188 | 4.3 | 7.8 | 0.00 | 0.14 | 0.00 | 84 | 1013.1 |
| 20260905161903 | 80 | 191 | 3.5 | 7.8 | 0.00 | 0.14 | 0.00 | 83 | 1013.2 |
| 20260905161403 | 80 | 186 | 3.5 | 7.8 | 0.00 | 0.14 | 0.00 | 83 | 1013.2 |
| 20260905160902 | 79 | 192 | 3.5 | 7.0 | 0.00 | 0.14 | 0.00 | 85 | 1013.1 |
| 20260905160403 | 79 | 175 | 2.6 | 7.0 | 0.00 | 0.14 | 0.00 | 85 | 1013.1 |
| 20260905155903 | 79 | 218 | 2.6 | 7.0 | 0.00 | 0.14 | 0.00 | 84 | 1013.1 |
| 20260905155403 | 79 | 197 | 1.7 | 4.3 | 0.00 | 0.14 | 0.00 | 86 | 1013.1 |
| 20260905154902 | 78 | 212 | 2.6 | 6.1 | 0.00 | 0.14 | 0.00 | 87 | 1013.1 |
| 20260905154402 | 78 | 187 | 2.6 | 5.2 | 0.00 | 0.14 | 0.00 | 87 | 1013.1 |
| 20260905152903 | 77 | 201 | 2.6 | 6.1 | 0.00 | 0.14 | 0.00 | 88 | 1012.9 |
| 20260905152403 | 77 | 188 | 4.3 | 7.0 | 0.00 | 0.14 | 0.00 | 88 | 1012.9 |
| 20260905151403 | 77 | 221 | 3.5 | 7.0 | 0.00 | 0.14 | 0.00 | 87 | 1013.0 |
| 20260905150903 | 77 | 188 | 2.6 | 6.1 | 0.00 | 0.14 | 0.00 | 87 | 1013.1 |
| 20260905150403 | 77 | 236 | 3.5 | 7.8 | 0.00 | 0.14 | 0.00 | 86 | 1013.3 |
| 20260905145403 | 76 | 203 | 3.5 | 6.1 | 0.00 | 0.14 | 0.00 | 90 | 1012.9 |
| 20260905144902 | 75 | 155 | 1.7 | 5.2 | 0.00 | 0.14 | 0.00 | 90 | 1013.0 |
| 20260905144403 | 75 | 163 | 1.7 | 5.2 | 0.00 | 0.14 | 0.00 | 90 | 1013.0 |
| 20260905143902 | 74 | 174 | 1.7 | 4.3 | 0.00 | 0.14 | 0.00 | 90 | 1013.1 |
| 20260905143402 | 74 | 195 | 1.7 | 4.3 | 0.00 | 0.14 | 0.00 | 90 | 1013.1 |
| 20260905141903 | 74 | 169 | 0.9 | 4.3 | 0.00 | 0.14 | 0.00 | 88 | 1013.1 |
| 20260905141402 | 74 | 149 | 2.6 | 6.1 | 0.00 | 0.14 | 0.00 | 89 | 1013.0 |
| 20260905140903 | 74 | 174 | 3.5 | 11.3 | 0.00 | 0.14 | 0.00 | 89 | 1012.6 |
| 20260905140403 | 74 | 197 | 4.3 | 7.0 | 0.00 | 0.14 | 0.00 | 89 | 1012.4 |
| 20260905135403 | 74 | 189 | 4.3 | 6.1 | 0.00 | 0.14 | 0.00 | 91 | 1012.4 |
| 20260905134903 | 73 | 208 | 2.6 | 10.4 | 0.00 | 0.14 | 0.00 | 90 | 1012.4 |
| 20260905134403 | 73 | 197 | 4.3 | 8.7 | 0.00 | 0.14 | 0.00 | 91 | 1012.2 |
| 20260905133402 | 73 | 211 | 3.5 | 8.7 | 0.00 | 0.14 | 0.00 | 92 | 1012.4 |
| 20260905132903 | 73 | 173 | 5.2 | 10.4 | 0.00 | 0.14 | 0.00 | 92 | 1012.3 |
| 20260905132403 | 72 | 184 | 4.3 | 10.4 | 0.00 | 0.14 | 0.00 | 93 | 1012.2 |
| 20260905131904 | 72 | 181 | 5.2 | 10.4 | 0.00 | 0.14 | 0.00 | 92 | 1012.2 |
| 20260905131403 | 72 | 189 | 4.3 | 8.7 | 0.00 | 0.14 | 0.00 | 92 | 1012.2 |
| 20260905130903 | 72 | 173 | 5.2 | 12.2 | 0.00 | 0.14 | 0.00 | 93 | 1012.3 |
| 20260905130403 | 72 | 178 | 4.3 | 7.8 | 0.00 | 0.14 | 0.00 | 93 | 1012.3 |
| 20260905125902 | 72 | 170 | 4.3 | 7.0 | 0.00 | 0.14 | 0.00 | 94 | 1012.4 |
| 20260905124903 | 71 | 183 | 3.5 | 10.4 | 0.00 | 0.14 | 0.00 | 96 | 1012.4 |
| 20260905123903 | 70 | 188 | 3.5 | 10.4 | 0.00 | 0.14 | 0.00 | 95 | 1012.4 |
| 20260905123404 | 70 | 183 | 2.6 | 8.7 | 0.00 | 0.14 | 0.00 | 95 | 1012.4 |
| 20260905122904 | 70 | 177 | 4.3 | 7.8 | 0.00 | 0.14 | 0.00 | 96 | 1012.4 |
| 20260905122403 | 70 | 177 | 4.3 | 7.0 | 0.00 | 0.14 | 0.00 | 96 | 1012.4 |
| 20260905121902 | 70 | 195 | 3.5 | 6.1 | 0.00 | 0.14 | 0.00 | 96 | 1012.4 |
| 20260905121403 | 70 | 174 | 2.6 | 8.7 | 0.00 | 0.14 | 0.00 | 96 | 1012.4 |
| 20260905120903 | 69 | 195 | 2.6 | 5.2 | 0.00 | 0.14 | 0.00 | 96 | 1012.5 |
| 20260905120403 | 69 | 185 | 3.5 | 7.0 | 0.00 | 0.14 | 0.00 | 96 | 1012.3 |
| 20260905115903 | 69 | 203 | 2.6 | 4.3 | 0.00 | 0.14 | 0.00 | 96 | 1012.4 |
| 20260905114903 | 69 | 156 | 0.9 | 5.2 | 0.00 | 0.14 | 0.00 | 95 | 1012.6 |
| 20260905114403 | 69 | 157 | 2.6 | 6.1 | 0.00 | 0.14 | 0.00 | 95 | 1012.6 |
| 20260905113903 | 69 | 160 | 3.5 | 6.1 | 0.00 | 0.14 | 0.00 | 95 | 1012.5 |
| 20260905113403 | 69 | 164 | 1.7 | 5.2 | 0.00 | 0.14 | 0.00 | 95 | 1012.5 |
| 20260905112903 | 69 | 162 | 1.7 | 7.0 | 0.00 | 0.14 | 0.00 | 95 | 1012.5 |
| 20260905112404 | 69 | 160 | 0.9 | 4.3 | 0.00 | 0.14 | 0.00 | 95 | 1012.5 |
| 20260905111903 | 69 | 163 | 2.6 | 7.0 | 0.00 | 0.14 | 0.00 | 95 | 1012.5 |
| 20260905111403 | 69 | 176 | 1.7 | 6.1 | 0.00 | 0.14 | 0.00 | 95 | 1012.4 |
| 20260905110903 | 69 | 157 | 2.6 | 7.0 | 0.00 | 0.14 | 0.00 | 95 | 1012.4 |
| 20260905110403 | 69 | 135 | 2.6 | 7.0 | 0.00 | 0.14 | 0.00 | 94 | 1012.4 |
| 20260905105903 | 70 | 165 | 2.6 | 7.8 | 0.00 | 0.14 | 0.00 | 94 | 1012.2 |
| 20260905105404 | 70 | 177 | 1.7 | 5.2 | 0.00 | 0.14 | 0.00 | 94 | 1012.3 |
| 20260905104903 | 70 | 128 | 1.7 | 4.3 | 0.00 | 0.14 | 0.00 | 94 | 1012.3 |
| 20260905104404 | 70 | 141 | 1.7 | 4.3 | 0.00 | 0.14 | 0.00 | 93 | 1012.3 |
| 20260905103903 | 70 | 137 | 2.6 | 6.1 | 0.00 | 0.14 | 0.00 | 93 | 1012.3 |
| 20260905103404 | 70 | 106 | 3.5 | 7.8 | 0.00 | 0.14 | 0.00 | 93 | 1012.4 |
| 20260905102904 | 70 | 118 | 2.6 | 7.0 | 0.00 | 0.14 | 0.00 | 93 | 1012.3 |
| 20260905102404 | 70 | 119 | 3.5 | 7.0 | 0.00 | 0.14 | 0.00 | 93 | 1012.4 |
| 20260905101904 | 70 | 144 | 3.5 | 7.8 | 0.00 | 0.14 | 0.00 | 93 | 1012.4 |
| 20260905100903 | 70 | 101 | 2.6 | 7.8 | 0.00 | 0.14 | 0.00 | 92 | 1012.6 |
| 20260905100404 | 70 | 139 | 2.6 | 6.1 | 0.00 | 0.14 | 0.00 | 92 | 1012.6 |
| 20260905095903 | 70 | 91 | 4.3 | 7.8 | 0.00 | 0.14 | 0.00 | 92 | 1012.7 |
| 20260905095403 | 70 | 97 | 2.6 | 8.7 | 0.00 | 0.14 | 0.00 | 92 | 1012.6 |
| 20260905094903 | 70 | 112 | 2.6 | 6.1 | 0.00 | 0.14 | 0.00 | 92 | 1012.7 |
| 20260905094403 | 71 | 105 | 2.6 | 7.0 | 0.00 | 0.14 | 0.00 | 92 | 1012.6 |
| 20260905093903 | 71 | 103 | 2.6 | 7.8 | 0.00 | 0.14 | 0.00 | 93 | 1012.7 |
| 20260905093403 | 71 | 79 | 2.6 | 8.7 | 0.00 | 0.14 | 0.00 | 93 | 1012.7 |
| 20260905092404 | 71 | 64 | 6.1 | 10.4 | 0.00 | 0.14 | 0.00 | 94 | 1012.7 |
| 20260905091904 | 73 | 61 | 6.1 | 13.9 | 0.00 | 0.14 | 0.00 | 95 | 1012.4 |
| 20260905091404 | 74 | 125 | 2.6 | 8.7 | 0.00 | 0.14 | 0.00 | 96 | 1012.1 |
| 20260905090904 | 74 | 64 | 7.0 | 10.4 | 0.00 | 0.14 | 0.00 | 97 | 1012.3 |
| 20260905090404 | 74 | 91 | 3.5 | 10.4 | 0.00 | 0.14 | 0.00 | 98 | 1012.0 |
| 20260905085903 | 74 | 59 | 5.2 | 14.8 | 0.00 | 0.14 | 0.00 | 98 | 1012.1 |
| 20260905085404 | 74 | 52 | 4.3 | 7.8 | 0.00 | 0.14 | 0.00 | 98 | 1011.8 |
| 20260905084403 | 73 | 32 | 0.0 | 0.0 | 0.00 | 0.14 | 0.00 | 97 | 1011.2 |
| 20260905083904 | 73 | 32 | 0.0 | 0.0 | 0.00 | 0.14 | 0.00 | 97 | 1011.3 |
| 20260905083403 | 74 | 32 | 0.0 | 0.0 | 0.00 | 0.14 | 0.00 | 97 | 1011.3 |
| 20260905082903 | 74 | 32 | 0.0 | 0.0 | 0.00 | 0.14 | 0.00 | 97 | 1011.3 |
| 20260905082403 | 74 | 32 | 0.0 | 0.0 | 0.00 | 0.14 | 0.00 | 97 | 1011.3 |
| 20260905081403 | 74 | 32 | 0.0 | 0.0 | 0.00 | 0.15 | 0.00 | 97 | 1011.3 |
| 20260905080905 | 74 | 32 | 0.0 | 0.0 | 0.00 | 0.15 | 0.00 | 97 | 1011.3 |